QPF
0.03 0.03 0.02 0.01 0.01 0.02 0.02 0.03 0.03 0.04 0.03 0.02 0.02 0.02 0.02 0.02 0.01 0.01 0.01 0.01 0.01 0.02 0.03 0.02 0.01 0.02 0.03 0.03 0.04 0.03 0.03 0.04 0.07 0.09 0.06 0.05 0.06 0.10 0.14 0.14 0.12 0.11 0.09
0.04 0.03 0.03 0.03 0.02 0.03 0.04 0.04 0.04 0.04 0.04 0.02 0.01 0.01 0.01 0.01 0.01 0.01 0.02 0.02 0.02 0.02 0.03 0.03 0.02 0.02 0.03 0.03 0.05 0.05 0.04 0.04 0.06 0.09 0.08 0.06 0.05 0.07 0.08 0.09 0.09 0.09 0.07
0.06 0.05 0.04 0.03 0.03 0.03 0.02 0.02 0.02 0.02 0.02 0.01 0.01 0.01 0.01 0.01 0.01 0.01 0.02 0.03 0.03 0.02 0.04 0.04 0.03 0.02 0.03 0.03 0.05 0.06 0.05 0.04 0.06 0.08 0.09 0.08 0.07 0.08 0.07 0.06 0.06 0.05 0.04
0.06 0.05 0.04 0.03 0.03 0.03 0.01 0.02 0.01 0.01 0.01 0.01 0.01 0.01 0.01 0.01 0.01 0.01 0.01 0.01 0.02 0.02 0.03 0.04 0.04 0.03 0.03 0.03 0.03 0.05 0.06 0.05 0.05 0.08 0.09 0.08 0.08 0.08 0.07 0.06 0.05 0.03 0.03
0.05 0.05 0.04 0.02 0.01 0.01 0.00 0.01 0.02 0.02 0.01 0.00 0.00 0.00 0.01 0.01 0.01 0.01 0.01 0.00 0.00 0.01 0.02 0.03 0.04 0.03 0.03 0.02 0.02 0.02 0.04 0.05 0.06 0.07 0.08 0.09 0.08 0.07 0.06 0.06 0.05 0.04 0.04
0.04 0.05 0.04 0.02 0.02 0.01 0.01 0.01 0.02 0.02 0.01 0.00 0.00 0.00 0.00 0.00 0.00 0.00 0.00 0.01 0.01 0.01 0.02 0.03 0.03 0.03 0.02 0.01 0.01 0.02 0.02 0.03 0.04 0.05 0.07 0.08 0.08 0.08 0.07 0.05 0.05 0.04 0.04
0.03 0.04 0.04 0.03 0.02 0.03 0.01 0.01 0.01 0.01 0.01 0.00 0.00 0.00 0.01 0.00 0.00 0.00 0.00 0.01 0.01 0.01 0.02 0.03 0.03 0.03 0.02 0.01 0.01 0.01 0.01 0.02 0.02 0.02 0.03 0.05 0.06 0.07 0.07 0.05 0.04 0.03 0.03
0.02 0.03 0.03 0.03 0.02 0.02 0.01 0.01 0.01 0.01 0.01 0.00 0.00 0.00 0.00 0.00 0.00 0.00 0.00 0.00 0.00 0.01 0.01 0.03 0.04 0.03 0.02 0.02 0.01 0.01 0.02 0.02 0.01 0.01 0.01 0.02 0.03 0.04 0.06 0.06 0.05 0.03 0.03
0.03 0.03 0.03 0.04 0.03 0.02 0.02 0.01 0.01 0.01 0.01 0.00 0.00 0.00 0.00 0.00 0.01 0.01 0.01 0.00 0.00 0.00 0.01 0.02 0.03 0.03 0.02 0.02 0.02 0.02 0.02 0.03 0.03 0.03 0.02 0.02 0.02 0.02 0.03 0.05 0.05 0.03 0.02
0.03 0.03 0.03 0.04 0.02 0.02 0.01 0.01 0.01 0.00 0.00 0.00 0.00 0.00 0.00 0.00 0.00 0.01 0.01 0.01 0.00 0.00 0.01 0.01 0.02 0.02 0.03 0.03 0.03 0.02 0.01 0.02 0.03 0.03 0.03 0.03 0.02 0.02 0.02 0.03 0.03 0.03 0.03
0.02 0.02 0.03 0.03 0.02 0.01 0.01 0.01 0.01 0.01 0.00 0.00 0.00 0.00 0.00 0.00 0.00 0.00 0.00 0.00 0.00 0.01 0.01 0.01 0.01 0.01 0.01 0.02 0.02 0.01 0.02 0.02 0.02 0.02 0.01 0.02 0.02 0.02 0.01 0.02 0.03 0.02 0.02
0.02 0.02 0.01 0.02 0.02 0.02 0.01 0.01 0.01 0.01 0.00 0.00 0.00 0.00 0.00 0.00 0.00 0.00 0.01 0.00 0.00 0.01 0.01 0.01 0.01 0.01 0.01 0.01 0.01 0.01 0.02 0.03 0.03 0.02 0.01 0.01 0.01 0.02 0.01 0.02 0.02 0.02 0.01
0.02 0.01 0.01 0.02 0.02 0.01 0.01 0.01 0.01 0.01 0.01 0.01 0.01 0.01 0.00 0.00 0.00 0.00 0.00 0.01 0.01 0.01 0.00 0.01 0.01 0.01 0.02 0.01 0.01 0.01 0.02 0.02 0.04 0.03 0.02 0.01 0.01 0.01 0.01 0.01 0.02 0.02 0.01
0.02 0.01 0.01 0.01 0.01 0.01 0.01 0.01 0.01 0.01 0.02 0.02 0.01 0.00 0.00 0.00 0.00 0.00 0.00 0.00 0.00 0.01 0.01 0.01 0.01 0.02 0.01 0.02 0.02 0.02 0.03 0.04 0.03 0.04 0.04 0.02 0.01 0.01 0.01 0.01 0.01 0.01 0.01
0.02 0.02 0.01 0.01 0.01 0.01 0.01 0.01 0.01 0.01 0.01 0.01 0.01 0.01 0.00 0.00 0.00 0.00 0.00 0.00 0.00 0.00 0.00 0.00 0.01 0.02 0.02 0.02 0.02 0.01 0.02 0.03 0.03 0.03 0.03 0.03 0.02 0.01 0.01 0.01 0.01 0.01 0.01
0.01 0.03 0.03 0.01 0.01 0.01 0.01 0.01 0.00 0.00 0.01 0.01 0.01 0.01 0.01 0.00 0.00 0.00 0.00 0.01 0.01 0.01 0.00 0.00 0.01 0.01 0.02 0.02 0.02 0.01 0.00 0.01 0.02 0.03 0.04 0.03 0.02 0.01 0.01 0.01 0.01 0.01 0.01
0.01 0.02 0.05 0.02 0.01 0.01 0.01 0.01 0.01 0.00 0.00 0.01 0.01 0.01 0.01 0.01 0.01 0.01 0.01 0.01 0.01 0.02 0.02 0.01 0.01 0.01 0.02 0.01 0.01 0.00 0.00 0.01 0.01 0.02 0.03 0.04 0.02 0.02 0.01 0.01 0.01 0.01 0.01
0.01 0.01 0.04 0.04 0.02 0.01 0.01 0.01 0.00 0.00 0.00 0.00 0.00 0.00 0.01 0.01 0.01 0.02 0.01 0.01 0.01 0.02 0.02 0.02 0.02 0.02 0.03 0.03 0.02 0.01 0.01 0.01 0.02 0.02 0.02 0.04 0.02 0.01 0.01 0.02 0.02 0.01 0.01
0.01 0.01 0.01 0.02 0.03 0.02 0.01 0.01 0.01 0.00 0.00 0.00 0.00 0.00 0.01 0.01 0.01 0.02 0.03 0.02 0.02 0.02 0.02 0.02 0.02 0.02 0.02 0.02 0.03 0.02 0.01 0.01 0.01 0.02 0.02 0.03 0.02 0.02 0.01 0.01 0.01 0.02 0.02
0.00 0.01 0.01 0.01 0.01 0.02 0.02 0.01 0.01 0.01 0.01 0.00 0.00 0.00 0.01 0.01 0.01 0.02 0.02 0.02 0.02 0.02 0.03 0.03 0.03 0.02 0.02 0.03 0.03 0.02 0.01 0.01 0.01 0.01 0.02 0.02 0.02 0.02 0.02 0.01 0.01 0.01 0.02
0.00 0.00 0.01 0.01 0.01 0.01 0.01 0.02 0.01 0.01 0.00 0.00 0.00 0.00 0.01 0.01 0.01 0.01 0.02 0.02 0.02 0.02 0.03 0.03 0.03 0.03 0.03 0.03 0.04 0.04 0.02 0.01 0.01 0.01 0.01 0.02 0.02 0.02 0.02 0.01 0.01 0.01 0.02
0.00 0.00 0.01 0.01 0.01 0.01 0.02 0.02 0.02 0.01 0.01 0.00 0.00 0.00 0.00 0.01 0.01 0.01 0.02 0.02 0.02 0.03 0.03 0.03 0.03 0.04 0.04 0.04 0.04 0.04 0.03 0.02 0.01 0.01 0.01 0.01 0.02 0.02 0.02 0.02 0.02 0.02 0.02
0.00 0.00 0.01 0.01 0.01 0.01 0.02 0.02 0.02 0.01 0.01 0.00 0.00 0.00 0.00 0.00 0.01 0.01 0.01 0.02 0.02 0.03 0.03 0.04 0.04 0.04 0.04 0.04 0.04 0.03 0.02 0.02 0.01 0.01 0.01 0.01 0.02 0.02 0.02 0.02 0.02 0.02 0.02
0.00 0.00 0.01 0.01 0.01 0.01 0.02 0.02 0.01 0.01 0.01 0.00 0.00 0.00 0.00 0.01 0.01 0.01 0.01 0.01 0.02 0.03 0.03 0.04 0.04 0.04 0.04 0.04 0.04 0.03 0.03 0.02 0.02 0.01 0.01 0.01 0.01 0.01 0.01 0.01 0.01 0.01 0.01
0.00 0.00 0.01 0.01 0.01 0.01 0.02 0.02 0.01 0.01 0.01 0.00 0.00 0.00 0.00 0.00 0.01 0.01 0.01 0.01 0.01 0.02 0.03 0.03 0.04 0.04 0.04 0.04 0.04 0.03 0.02 0.02 0.02 0.01 0.01 0.01 0.01 0.01 0.01 0.01 0.01 0.01 0.01
0.00 0.00 0.01 0.01 0.01 0.01 0.01 0.01 0.01 0.01 0.01 0.00 0.00 0.00 0.00 0.01 0.01 0.01 0.01 0.01 0.01 0.01 0.02 0.02 0.03 0.02 0.03 0.03 0.03 0.03 0.03 0.03 0.02 0.01 0.01 0.01 0.01 0.01 0.01 0.01 0.01 0.01 0.01
MSLP
1020.30 1020.18 1020.03 1019.81 1019.53 1019.19 1018.82 1018.45 1018.14 1017.93 1017.85 1017.91 1018.11 1018.39 1018.73 1019.04 1019.29 1019.43 1019.47 1019.40 1019.28 1019.13 1019.03 1019.00 1019.08 1019.25 1019.50 1019.80 1020.10 1020.38 1020.60 1020.76 1020.87 1020.93 1020.97 1021.01 1021.06 1021.10 1021.14 1021.15 1021.11 1021.02 1020.88
1021.62 1021.45 1021.24 1020.97 1020.65 1020.28 1019.86 1019.45 1019.10 1018.84 1018.72 1018.75 1018.90 1019.16 1019.47 1019.76 1019.98 1020.09 1020.09 1019.98 1019.81 1019.62 1019.47 1019.39 1019.42 1019.55 1019.77 1020.03 1020.32 1020.57 1020.79 1020.95 1021.07 1021.15 1021.23 1021.32 1021.42 1021.52 1021.62 1021.68 1021.69 1021.64 1021.52
1022.65 1022.42 1022.17 1021.88 1021.54 1021.16 1020.74 1020.33 1019.96 1019.69 1019.54 1019.52 1019.64 1019.85 1020.11 1020.36 1020.54 1020.62 1020.59 1020.47 1020.28 1020.07 1019.89 1019.79 1019.78 1019.87 1020.03 1020.24 1020.47 1020.68 1020.86 1021.01 1021.12 1021.23 1021.35 1021.49 1021.65 1021.82 1021.99 1022.11 1022.18 1022.18 1022.10
1023.41 1023.13 1022.85 1022.55 1022.23 1021.86 1021.48 1021.09 1020.75 1020.47 1020.30 1020.26 1020.32 1020.47 1020.67 1020.86 1020.99 1021.05 1021.00 1020.87 1020.68 1020.48 1020.30 1020.18 1020.14 1020.17 1020.27 1020.41 1020.56 1020.71 1020.83 1020.93 1021.04 1021.15 1021.30 1021.48 1021.70 1021.94 1022.18 1022.37 1022.50 1022.55 1022.52
1023.97 1023.66 1023.37 1023.08 1022.78 1022.47 1022.13 1021.80 1021.49 1021.23 1021.05 1020.97 1020.98 1021.07 1021.19 1021.31 1021.40 1021.41 1021.36 1021.23 1021.05 1020.86 1020.69 1020.55 1020.48 1020.46 1020.48 1020.53 1020.59 1020.65 1020.70 1020.75 1020.82 1020.93 1021.08 1021.30 1021.56 1021.86 1022.15 1022.40 1022.59 1022.69 1022.70
1024.43 1024.11 1023.82 1023.55 1023.29 1023.03 1022.76 1022.49 1022.23 1022.00 1021.82 1021.71 1021.66 1021.67 1021.72 1021.77 1021.79 1021.77 1021.70 1021.57 1021.41 1021.23 1021.05 1020.91 1020.79 1020.72 1020.66 1020.62 1020.58 1020.54 1020.51 1020.49 1020.52 1020.59 1020.74 1020.96 1021.25 1021.57 1021.89 1022.19 1022.42 1022.58 1022.64
1024.89 1024.56 1024.28 1024.03 1023.82 1023.62 1023.41 1023.20 1022.99 1022.79 1022.61 1022.47 1022.38 1022.32 1022.28 1022.26 1022.22 1022.16 1022.06 1021.92 1021.76 1021.58 1021.40 1021.23 1021.08 1020.94 1020.80 1020.67 1020.54 1020.41 1020.29 1020.21 1020.18 1020.21 1020.33 1020.54 1020.81 1021.13 1021.46 1021.78 1022.04 1022.24 1022.36
1025.38 1025.06 1024.78 1024.56 1024.38 1024.23 1024.09 1023.94 1023.77 1023.59 1023.42 1023.26 1023.11 1022.99 1022.88 1022.79 1022.69 1022.57 1022.43 1022.28 1022.10 1021.91 1021.72 1021.52 1021.32 1021.12 1020.92 1020.71 1020.50 1020.29 1020.11 1019.96 1019.87 1019.86 1019.93 1020.09 1020.32 1020.62 1020.93 1021.24 1021.53 1021.76 1021.93
1025.92 1025.60 1025.33 1025.13 1024.98 1024.87 1024.76 1024.65 1024.52 1024.37 1024.20 1024.02 1023.84 1023.66 1023.49 1023.33 1023.17 1023.00 1022.83 1022.64 1022.44 1022.22 1022.00 1021.77 1021.53 1021.28 1021.03 1020.76 1020.50 1020.23 1019.99 1019.79 1019.65 1019.58 1019.59 1019.69 1019.87 1020.11 1020.39 1020.68 1020.96 1021.22 1021.44
1026.48 1026.16 1025.90 1025.70 1025.57 1025.47 1025.40 1025.31 1025.20 1025.06 1024.89 1024.70 1024.49 1024.28 1024.07 1023.85 1023.64 1023.43 1023.21 1022.98 1022.75 1022.50 1022.25 1021.98 1021.71 1021.43 1021.14 1020.84 1020.54 1020.24 1019.97 1019.73 1019.54 1019.42 1019.37 1019.39 1019.50 1019.66 1019.88 1020.13 1020.40 1020.68 1020.95
1026.99 1026.68 1026.42 1026.23 1026.10 1026.01 1025.94 1025.87 1025.77 1025.63 1025.46 1025.26 1025.04 1024.81 1024.56 1024.31 1024.06 1023.81 1023.55 1023.29 1023.02 1022.74 1022.46 1022.17 1021.87 1021.57 1021.26 1020.95 1020.64 1020.33 1020.04 1019.77 1019.54 1019.36 1019.24 1019.19 1019.21 1019.29 1019.44 1019.64 1019.89 1020.17 1020.48
1027.42 1027.12 1026.87 1026.68 1026.55 1026.45 1026.38 1026.30 1026.19 1026.06 1025.89 1025.69 1025.47 1025.22 1024.96 1024.70 1024.43 1024.15 1023.86 1023.56 1023.26 1022.95 1022.64 1022.32 1022.00 1021.69 1021.38 1021.07 1020.76 1020.45 1020.15 1019.87 1019.60 1019.37 1019.17 1019.03 1018.96 1018.96 1019.03 1019.17 1019.39 1019.67 1020.00
1027.73 1027.46 1027.23 1027.04 1026.91 1026.80 1026.71 1026.61 1026.50 1026.36 1026.19 1026.00 1025.78 1025.54 1025.28 1025.01 1024.73 1024.43 1024.12 1023.80 1023.46 1023.12 1022.78 1022.44 1022.11 1021.79 1021.48 1021.17 1020.86 1020.56 1020.25 1019.94 1019.64 1019.35 1019.08 1018.86 1018.70 1018.60 1018.60 1018.68 1018.86 1019.13 1019.47
1027.92 1027.69 1027.49 1027.32 1027.18 1027.07 1026.96 1026.85 1026.72 1026.58 1026.41 1026.22 1026.00 1025.77 1025.53 1025.26 1024.98 1024.67 1024.34 1023.99 1023.63 1023.26 1022.89 1022.53 1022.18 1021.84 1021.52 1021.21 1020.90 1020.59 1020.27 1019.93 1019.59 1019.24 1018.91 1018.60 1018.35 1018.18 1018.10 1018.12 1018.26 1018.50 1018.84
1028.03 1027.85 1027.69 1027.55 1027.42 1027.30 1027.18 1027.05 1026.91 1026.75 1026.58 1026.39 1026.19 1025.97 1025.74 1025.48 1025.19 1024.87 1024.53 1024.16 1023.76 1023.36 1022.95 1022.56 1022.18 1021.82 1021.48 1021.16 1020.84 1020.51 1020.16 1019.79 1019.41 1019.00 1018.61 1018.23 1017.91 1017.66 1017.51 1017.48 1017.57 1017.78 1018.10
1028.07 1027.97 1027.87 1027.76 1027.65 1027.52 1027.39 1027.24 1027.08 1026.92 1026.74 1026.55 1026.36 1026.15 1025.92 1025.66 1025.37 1025.04 1024.67 1024.27 1023.84 1023.39 1022.95 1022.51 1022.10 1021.71 1021.35 1021.00 1020.65 1020.30 1019.92 1019.52 1019.09 1018.64 1018.19 1017.76 1017.38 1017.07 1016.87 1016.79 1016.84 1017.01 1017.30
1028.11 1028.09 1028.05 1027.98 1027.88 1027.76 1027.62 1027.45 1027.28 1027.09 1026.91 1026.72 1026.52 1026.31 1026.08 1025.82 1025.51 1025.16 1024.76 1024.32 1023.84 1023.35 1022.86 1022.39 1021.94 1021.52 1021.12 1020.74 1020.37 1019.98 1019.58 1019.14 1018.68 1018.19 1017.70 1017.24 1016.81 1016.47 1016.23 1016.11 1016.12 1016.25 1016.50
1028.18 1028.24 1028.25 1028.22 1028.14 1028.02 1027.86 1027.68 1027.48 1027.28 1027.07 1026.88 1026.67 1026.45 1026.21 1025.93 1025.60 1025.21 1024.77 1024.29 1023.77 1023.24 1022.71 1022.19 1021.71 1021.25 1020.83 1020.43 1020.03 1019.63 1019.20 1018.74 1018.25 1017.74 1017.23 1016.74 1016.30 1015.93 1015.67 1015.52 1015.49 1015.58 1015.78
1028.30 1028.42 1028.48 1028.47 1028.40 1028.27 1028.09 1027.89 1027.67 1027.44 1027.22 1027.01 1026.79 1026.55 1026.28 1025.97 1025.61 1025.19 1024.71 1024.18 1023.63 1023.06 1022.49 1021.95 1021.45 1020.98 1020.54 1020.12 1019.71 1019.29 1018.85 1018.38 1017.88 1017.36 1016.84 1016.34 1015.89 1015.51 1015.23 1015.05 1014.99 1015.05 1015.20
1028.47 1028.63 1028.72 1028.72 1028.64 1028.49 1028.29 1028.06 1027.82 1027.57 1027.33 1027.09 1026.85 1026.59 1026.30 1025.96 1025.56 1025.10 1024.58 1024.02 1023.44 1022.85 1022.27 1021.72 1021.21 1020.73 1020.30 1019.88 1019.47 1019.04 1018.59 1018.12 1017.61 1017.08 1016.55 1016.04 1015.58 1015.20 1014.90 1014.70 1014.61 1014.62 1014.72
1028.68 1028.86 1028.95 1028.94 1028.84 1028.67 1028.45 1028.19 1027.93 1027.66 1027.40 1027.14 1026.88 1026.59 1026.27 1025.90 1025.47 1024.98 1024.44 1023.85 1023.25 1022.66 1022.08 1021.54 1021.04 1020.58 1020.16 1019.75 1019.34 1018.91 1018.46 1017.97 1017.44 1016.90 1016.35 1015.83 1015.35 1014.94 1014.62 1014.40 1014.27 1014.24 1014.29
1028.90 1029.07 1029.15 1029.11 1028.99 1028.80 1028.56 1028.28 1027.99 1027.71 1027.44 1027.16 1026.88 1026.57 1026.23 1025.83 1025.38 1024.87 1024.31 1023.73 1023.13 1022.54 1021.98 1021.47 1020.99 1020.55 1020.15 1019.75 1019.34 1018.90 1018.43 1017.91 1017.35 1016.77 1016.19 1015.63 1015.11 1014.67 1014.31 1014.05 1013.88 1013.80 1013.80
1029.09 1029.25 1029.30 1029.24 1029.10 1028.88 1028.62 1028.34 1028.04 1027.75 1027.47 1027.19 1026.89 1026.58 1026.22 1025.81 1025.35 1024.83 1024.27 1023.69 1023.11 1022.55 1022.02 1021.52 1021.08 1020.66 1020.26 1019.86 1019.43 1018.97 1018.45 1017.89 1017.27 1016.64 1015.99 1015.37 1014.80 1014.30 1013.89 1013.57 1013.35 1013.23 1013.18
1029.22 1029.36 1029.39 1029.31 1029.16 1028.93 1028.67 1028.38 1028.09 1027.81 1027.53 1027.25 1026.95 1026.64 1026.27 1025.86 1025.40 1024.89 1024.35 1023.79 1023.23 1022.69 1022.19 1021.72 1021.29 1020.88 1020.47 1020.05 1019.59 1019.07 1018.49 1017.85 1017.16 1016.45 1015.72 1015.03 1014.38 1013.81 1013.33 1012.96 1012.68 1012.50 1012.40
1029.27 1029.39 1029.40 1029.32 1029.17 1028.95 1028.70 1028.43 1028.16 1027.89 1027.62 1027.36 1027.07 1026.76 1026.41 1026.01 1025.56 1025.07 1024.55 1024.01 1023.48 1022.96 1022.48 1022.03 1021.59 1021.17 1020.74 1020.27 1019.75 1019.17 1018.51 1017.79 1017.01 1016.20 1015.40 1014.61 1013.89 1013.24 1012.70 1012.26 1011.92 1011.68 1011.52
1029.21 1029.32 1029.34 1029.28 1029.13 1028.94 1028.72 1028.47 1028.23 1027.99 1027.75 1027.50 1027.24 1026.95 1026.61 1026.23 1025.81 1025.34 1024.84 1024.34 1023.83 1023.33 1022.86 1022.40 1021.96 1021.50 1021.02 1020.50 1019.91 1019.25 1018.51 1017.71 1016.85 1015.96 1015.08 1014.23 1013.44 1012.74 1012.13 1011.63 1011.23 1010.92 1010.70
Thickness
5720 5719 5717 5716 5714 5711 5709 5706 5703 5702 5699 5696 5693 5690 5688 5688 5688 5688 5687 5687 5687 5687 5687 5686 5685 5684 5682 5681 5682 5681 5680 5679 5680 5678 5675 5676 5677 5675 5674 5674 5673 5672 5671
5716 5715 5713 5712 5709 5706 5704 5702 5700 5697 5695 5691 5689 5686 5684 5682 5682 5682 5681 5681 5680 5680 5681 5680 5679 5678 5676 5675 5675 5674 5672 5672 5674 5670 5667 5663 5663 5666 5668 5667 5665 5664 5664
5711 5710 5709 5707 5705 5702 5701 5699 5696 5694 5691 5688 5685 5682 5679 5677 5675 5674 5674 5675 5675 5674 5675 5674 5673 5672 5670 5669 5668 5668 5666 5664 5666 5667 5662 5657 5653 5655 5658 5659 5658 5657 5656
5711 5708 5706 5703 5701 5700 5699 5696 5694 5691 5688 5685 5680 5676 5671 5668 5668 5668 5668 5669 5669 5669 5668 5668 5667 5666 5665 5663 5662 5662 5661 5659 5657 5658 5659 5658 5656 5650 5647 5649 5651 5651 5649
5709 5706 5704 5702 5700 5698 5695 5692 5689 5686 5684 5680 5676 5672 5668 5665 5664 5664 5663 5662 5662 5662 5662 5662 5661 5660 5659 5658 5657 5656 5655 5654 5652 5651 5651 5651 5651 5649 5643 5639 5640 5641 5642
5706 5703 5702 5699 5696 5694 5691 5687 5684 5681 5678 5675 5671 5667 5662 5660 5658 5656 5655 5655 5655 5655 5656 5656 5655 5654 5653 5652 5651 5650 5649 5648 5647 5646 5645 5643 5642 5641 5639 5635 5633 5632 5633
5701 5698 5696 5693 5690 5687 5684 5682 5679 5675 5672 5669 5665 5662 5658 5656 5653 5651 5649 5648 5648 5648 5649 5649 5648 5648 5647 5646 5645 5644 5643 5642 5641 5640 5639 5638 5638 5638 5636 5632 5628 5626 5626
5695 5693 5691 5687 5685 5682 5680 5677 5673 5669 5666 5663 5660 5657 5654 5651 5649 5647 5645 5643 5643 5642 5643 5643 5642 5641 5641 5640 5638 5637 5636 5635 5634 5634 5633 5632 5632 5632 5631 5627 5623 5619 5619
5691 5688 5686 5683 5680 5677 5674 5672 5668 5664 5660 5657 5654 5651 5649 5646 5643 5642 5641 5639 5638 5637 5637 5636 5635 5635 5634 5633 5632 5630 5629 5628 5628 5627 5627 5626 5625 5625 5625 5623 5620 5615 5611
5687 5685 5682 5679 5676 5672 5669 5666 5662 5658 5655 5652 5649 5646 5644 5641 5639 5637 5634 5633 5632 5631 5630 5629 5628 5627 5627 5627 5626 5624 5623 5622 5621 5621 5620 5619 5619 5618 5618 5617 5615 5614 5610
5683 5680 5676 5673 5670 5666 5663 5659 5656 5652 5650 5647 5644 5641 5638 5635 5633 5630 5629 5627 5626 5624 5623 5622 5621 5620 5620 5619 5618 5617 5617 5616 5615 5614 5614 5613 5613 5611 5611 5610 5609 5607 5605
5679 5675 5671 5667 5663 5659 5656 5653 5650 5647 5644 5641 5638 5635 5632 5629 5626 5624 5623 5621 5619 5618 5617 5616 5614 5614 5613 5612 5612 5611 5610 5609 5608 5608 5607 5606 5606 5605 5604 5602 5601 5600 5599
5672 5668 5664 5660 5656 5652 5649 5646 5643 5640 5638 5635 5631 5628 5625 5622 5620 5618 5617 5615 5613 5612 5611 5609 5608 5607 5606 5606 5605 5605 5604 5603 5602 5601 5600 5600 5599 5597 5596 5595 5594 5593 5593
5666 5661 5656 5653 5650 5647 5644 5640 5636 5633 5631 5628 5625 5621 5618 5616 5614 5612 5610 5608 5607 5605 5604 5603 5602 5601 5600 5599 5598 5598 5597 5596 5595 5595 5594 5593 5592 5591 5590 5589 5588 5587 5585
5659 5655 5651 5647 5644 5641 5637 5633 5630 5627 5624 5621 5617 5615 5612 5610 5607 5605 5603 5602 5600 5599 5598 5596 5595 5594 5593 5592 5591 5589 5589 5588 5588 5588 5587 5587 5586 5586 5585 5584 5581 5580 5578
5653 5650 5646 5642 5638 5635 5631 5627 5624 5621 5618 5614 5611 5608 5606 5603 5600 5597 5596 5594 5593 5592 5591 5590 5588 5586 5586 5585 5584 5582 5581 5580 5580 5580 5580 5580 5580 5579 5578 5577 5576 5575 5572
5647 5643 5639 5636 5632 5629 5626 5621 5618 5616 5612 5608 5604 5601 5598 5595 5593 5591 5589 5586 5585 5584 5583 5582 5581 5579 5578 5578 5576 5575 5574 5573 5573 5573 5573 5574 5573 5572 5570 5569 5569 5568 5567
5641 5637 5633 5629 5627 5624 5620 5617 5613 5608 5604 5601 5597 5594 5590 5588 5586 5584 5581 5580 5578 5577 5575 5574 5574 5572 5571 5570 5569 5568 5567 5566 5566 5566 5566 5565 5564 5564 5563 5561 5560 5559 5559
5636 5632 5628 5624 5620 5616 5613 5609 5604 5600 5597 5593 5589 5586 5583 5580 5578 5575 5573 5572 5571 5569 5568 5567 5566 5565 5564 5563 5563 5561 5559 5558 5558 5559 5559 5558 5558 5558 5556 5554 5552 5552 5552
5630 5625 5621 5617 5612 5608 5605 5600 5596 5592 5588 5585 5582 5579 5577 5574 5571 5569 5567 5566 5564 5563 5562 5561 5559 5558 5557 5556 5555 5554 5552 5550 5550 5551 5552 5552 5551 5551 5549 5546 5545 5544 5544
5622 5618 5613 5608 5603 5600 5596 5591 5587 5583 5581 5578 5575 5572 5570 5567 5565 5562 5560 5558 5557 5555 5554 5553 5553 5551 5550 5549 5547 5546 5544 5543 5543 5543 5543 5544 5544 5543 5542 5540 5539 5538 5538
5612 5609 5604 5599 5596 5592 5588 5582 5578 5576 5573 5570 5567 5564 5562 5560 5558 5554 5552 5551 5549 5547 5545 5545 5544 5543 5542 5541 5540 5538 5537 5536 5535 5535 5535 5536 5536 5535 5534 5533 5533 5532 5531
5603 5599 5594 5590 5587 5583 5579 5574 5571 5569 5565 5562 5559 5556 5554 5551 5549 5546 5544 5542 5540 5538 5537 5536 5535 5534 5534 5533 5532 5531 5530 5529 5528 5527 5528 5527 5527 5527 5526 5526 5526 5524 5523
5593 5589 5585 5581 5577 5574 5570 5566 5563 5560 5557 5554 5551 5548 5546 5543 5541 5538 5536 5533 5531 5528 5528 5527 5526 5525 5525 5523 5523 5522 5521 5521 5520 5519 5520 5520 5519 5518 5518 5518 5517 5517 5516
5584 5580 5576 5571 5568 5565 5561 5558 5555 5552 5549 5545 5543 5540 5537 5534 5532 5529 5526 5524 5522 5520 5518 5517 5516 5516 5515 5515 5514 5513 5513 5513 5512 5511 5511 5510 5509 5509 5508 5508 5508 5508 5508
5575 5571 5567 5563 5559 5556 5552 5550 5547 5544 5540 5537 5534 5531 5528 5526 5523 5520 5517 5515 5514 5513 5511 5510 5509 5508 5507 5507 5507 5507 5506 5506 5504 5503 5502 5502 5502 5501 5501 5500 5500 5500 5499